Regional Weather Roundup
Issued by NWS

Home | Current Version | Previous Version | Graphics & Text | Print | Product List | Glossary On
Versions: 1 2 3 4 5 6 7 8 9 10 11 12 13 14 15 16 17 18 19 20 21 22 23 24 25 26 27 28 29 30 31 32 33 34 35 36 37 38 39 40 41 42 43 44 45 46 47 48 49 50
145
ASUS44 KLIX 292203
RWRLA
LOUISIANA WEATHER ROUNDUP
NATIONAL WEATHER SERVICE NEW ORLEANS LA
500 PM CDT FRI AUG 29 2014

NOTE: "FAIR" INDICATES FEW OR NO CLOUDS BELOW 12,000 FEET WITH NO
      SIGNIFICANT WEATHER AND/OR OBSTRUCTIONS TO VISIBILITY.
      SKY/WX - SKY CONDITION AND SIGNIFICANT WEATHER.
      TMP - AIR TEMPERATURE.    DP   - DEWPOINT TEMPERATURE.
      RH  - RELATIVE HUMIDITY.  PRES - PRESSURE.
      HX  - HEAT INDEX.         WCI  - WIND CHILL INDEX.

*  THESE STATIONS ARE NOT NWS OR FAA STATIONS AND ARE NOT UNDER
   NWS QUALITY CONTROL.

LAZ040-048-061>063-065-066-069-292300-
SOUTHEAST LOUISIANA

CITY           SKY/WX    TMP DP  RH WIND       PRES   REMARKS
N.O. AUDUBON     N/A     78  75  91 MISG        N/A
N.O. INTL ARPT LGT RAIN  80  74  81 E7        29.96F
N.O. LAKEFRONT CLOUDY    79  75  87 SE7       29.97F
N.O. DOWNTOWN* MOCLDY    79  72  78 CALM      29.97S
SLIDELL        LGT RAIN  76  72  87 NE5       29.97S
BATON ROUGE    CLOUDY    80  74  81 SE8       29.95S
BOOTHVILLE     LGT RAIN  79  77  94 NE3       29.98R
BELLE CHASSE   CLOUDY    80  74  81 E8        29.95F
BOGALUSA*      MOCLDY    81  71  71 S7        29.99S
GALLIANO*      NOT AVBL
NEW ROADS*     FAIR      81  76  82 SE7       29.94S
GONZALES*      FAIR      79  78  96 E3        29.95S
HAMMOND*       NOT AVBL
HOUMA*         NOT AVBL
PORT FOURCHON* PTCLDY    79  75  89 E7        29.99R

$$

LAZ041-044-053-054-292300-
SOUTHWEST LOUISIANA

CITY           SKY/WX    TMP DP  RH WIND       PRES   REMARKS
LAKE CHARLES   CLOUDY    79  75  87 SE9       29.89F
LAFAYETTE      CLOUDY    82  74  76 E7        29.92S
PATTERSON        N/A     77  73  88 E6        29.97R
SALT POINT       N/A     81  75  82 VRB6      29.93R
NEW IBERIA     CLOUDY    82  75  79 E12       29.93R
CHENAULT AIRPK NOT AVBL

$$

LAZ027-028-292300-
CENTRAL LOUISIANA

CITY           SKY/WX    TMP DP  RH WIND       PRES   REMARKS
FORT POLK      CLOUDY    82  75  79 SE8       29.89F
ALEXANDRIA INT LGT RAIN  83  75  77 S5        29.88F
ALEXANDRIA     CLOUDY    87  75  67 SE6       29.91F HX  96

$$

LAZ001-002-292300-
NORTHWEST LOUISIANA

CITY           SKY/WX    TMP DP  RH WIND       PRES   REMARKS
SHREVEPORT     PTSUNNY   94  67  41 S12G18    29.85F HX  97
BARKSDALE AFB  MOSUNNY   92  65  41 SE10      29.86F
DTN SHREVEPORT PTSUNNY   92  68  45 SE13G22   29.86F HX  96

$$

LAZ014-016-292300-
NORTHEAST LOUISIANA

CITY           SKY/WX    TMP DP  RH WIND       PRES   REMARKS
MONROE         SUNNY     91  68  46 S10G18    29.90S HX  95
TALLULAH       SUNNY     90  69  50 S9        29.92S

$$




USA.gov is the U.S. government's official web portal to all federal, state and local government web resources and services.